CZ-6A DEB, 60791

Orbit data source: Space-Track

CZ-6A DEB, 60791 is space debris in LEO originally from a launch on Tue, 06 Aug 2024 UTC launched from the Taiyaun Space Center, China (TSC). Debris objects in space refer to the collection of defunct objects orbiting the Earth. Examples of debris include non-operational satellites, rocket bodies, and fragments generated from explosions, collisions, or faulty payload assembly.

Loading next visibility...
Identifier
60791, 2024-140FS
Orbit
LEO
Country
Flag of CNCN / PRC
Related business
Manufacturer
SAST
Mission
Spacecraft
Bus & Motor
Unknown
Mass
Unknown
Launch date (UTC)
2024-08-06 (2 years ago)
Launch vehicle
Unknown
Launch site
Taiyaun Space Center, China (TSC)
Object type
Payload
Rocket body
Debris
Shape & HBR
Unknown shape, 0.6 m
Radar Cross Section
Medium (>0.1 m² and <1 m²)

Expand to show TLE details & history
Last TLE update: 7 hours ago

TLE from 7 hours ago
0 CZ-6A DEB
1 60791U 24140FS  26118.83775617  .00000386  00000-0  19336-3 0  9998
2 60791  88.8350 269.2534 0078434  24.4894 335.9985 14.13111186 88202
Epoch: 2026-04-28T20:06Z
TLE epoch observation values (Epoch: 2026-04-28T20:06:22.133Z)
Latitude
-0.00003°
Longitude
110.85385°
Altitude
800.069 km
Speed
7.48 km/s
True Right ascension
17h 57m 00s
True Declination
0° 00' 00"
Sunlit
Object was in full shadow at epoch
Visualization orbit readout
Latitude
Unknown
Longitude
Unknown
Altitude
Unknown
Speed
Unknown
Apparent Right ascension
Unknown
Apparent Declination
Unknown
Sunlit
N/A
Visualization observer readout
Local Sidereal Time
10:59:12
Azimuth
Unknown
Elevation
Unknown
Doppler factor
Unknown
Orbital elements
Apogee altitude
902.366 km
Perigee altitude
789.047 km
Semi-major axis
7,223.844 km
Eccentricity
0.00784
Inclination
88.835°
RAAN
269.2534°
Arg. of periapsis
24.4894°
True anomaly
335.62961°
Mean anomaly
335.9985°
Eccentric anomaly
335.81439°
Mean motion
3.53501 °/min
Orbital period
101.84 mins
BSTAR
0.00019336
Loading maneuver chart data...
Computing Atmospheric mass density...
Loading historical data...
Loading historical data...
Loading historical data...
Loading historical data...
Loading historical data...
Loading historical data...
Loading historical data...

Documentation

Showing up to 5 results
|